Regional Weather Roundup
Issued by NWS New Orleans/Baton Rouge, LA

Home | Current Version | Previous Version | Graphics & Text | Print | Product List | Glossary On
Versions: 1 2 3 4 5 6 7 8 9 10 11 12 13 14 15 16 17 18 19 20 21 22 23 24 25 26 27 28 29 30 31 32 33 34 35 36 37 38 39 40 41 42 43 44 45 46 47 48 49 50
440
ASUS44 KLIX 021110
RWRLIX
NEW ORLEANS REGIONAL WEATHER ROUNDUP
NATIONAL WEATHER SERVICE NEW ORLEANS LA
600 AM CDT TUE SEP 02 2014

NOTE: "FAIR" INDICATES FEW OR NO CLOUDS BELOW 12,000 FEET WITH NO
      SIGNIFICANT WEATHER AND/OR OBSTRUCTIONS TO VISIBILITY.
      SKY/WX - SKY CONDITION AND SIGNIFICANT WEATHER.
      TMP - AIR TEMPERATURE.     DP    - DEWPOINT TEMPERATURE.
      RH  - RELATIVE HUMIDITY.   PRES  - PRESSURE.
      HI  - HEAT INDEX.          WCI   - WIND CHILL INDEX.

*  THESE STATIONS ARE NOT NWS OR FAA STATIONS AND ARE NOT UNDER
   NWS QUALITY CONTROL.

LAZ038-040-048-061>063-065>067-069-021200-
SOUTHEAST LOUISIANA

CITY           SKY/WX    TMP DP  RH WIND       PRES   REMARKS
N.O. AUDUBON     N/A     81  78  91 MISG        N/A
N.O. INTL ARPT MOCLDY    79  75  87 CALM      30.03R
N.O. LAKEFRONT MOCLDY    78  76  93 CALM      30.04R
N.O. DOWNTOWN*   N/A     81  73  78 CALM      30.04R
SLIDELL        MOCLDY    77  74  90 CALM      30.03R
BATON ROUGE    CLEAR     75  74  96 E5        30.03R
BOOTHVILLE     MOCLDY    82  78  88 SE6       30.04R
BELLE CHASSE   MOCLDY    78  74  87 NE3       30.02S
BOGALUSA*        N/A     75  72  89 CALM      30.05S
GALLIANO*      NOT AVBL
NEW ROADS*       N/A     76  75  98 SE3       30.02R
GONZALES*        N/A     75  75 100 CALM      30.02R
HAMMOND*       MOCLDY    77  73  88 CALM      30.05R
HOUMA*         PTCLDY    76  73  91 CALM      30.02S FOG
PORT FOURCHON* MOSUNNY   84  75  74 S6        30.04S

$$

MSZ070-080>082-021200-
SOUTHERN MISSISSIPPI

CITY           SKY/WX    TMP DP  RH WIND       PRES   REMARKS
MCCOMB         MOCLDY    75  73  93 CALM      30.05R
GULFPORT       CLEAR     77  75  93 CALM      30.03R
BILOXI         MOCLDY    81  77  89 N3        30.04R
PASCAGOULA     FOG       72  72 100 CALM      30.04S VSB 1/2

$$

COASTAL OBSERVATIONS
LAKE AND NEARSHORE STATIONS

STATION/POSITION TIME  TEMP    WIND        PRES    WAVE
                       AIR SEA DIR/SP/G            HT/PER
                 (UTC) (F)     (DEG/KT/KT) (MB)    (FT/S)
PASCAGOULA       1100   83     210/  5/  7 1016.6
WAVELAND YACHT   1100   80     300/  2/  2 1016.5
GRAND ISLE       1100   83 84  170/  4/  6 1017.4
SOUTHWEST PASS   1100   84 90  140/  6/  8 1017.3
NEW CANAL        1100   79 81  150/  2/  3 1017.3
SHELL BEACH      1100   81 81  120/  3/  3 1016.8

OFFSHORE STATIONS

STATION/POSITION TIME  TEMP    WIND        PRES    WAVE
                       AIR SEA DIR/SP/G            HT/PER
                 (UTC) (F)     (DEG/KT/KT) (MB)    (FT/S)
64 S DAUPHIN ISL 1100   83     160/  4       N/A

$$




USA.gov is the U.S. government's official web portal to all federal, state and local government web resources and services.